owner,sensor,date,latitude,longitude,vertical_datum,wind_speed,wind_to_direction,wind_speed_of_gust,qcFlag 
TCOON,ioos:station:TCOON:009:1,2013-07-01T00:00:00Z,27.8398,-97.0727,0.0,4.8,250.0,6.3,'11111222,11111222,11111222' 
TCOON,ioos:station:TCOON:009:1,2013-07-01T00:06:00Z,27.8398,-97.0727,0.0,5.7,257.0,6.6,'11111222,11111222,11111222' 
TCOON,ioos:station:TCOON:009:1,2013-07-01T00:12:00Z,27.8398,-97.0727,0.0,5.6,258.0,6.8,'11111222,11111222,11111222' 
TCOON,ioos:station:TCOON:009:1,2013-07-01T00:18:00Z,27.8398,-97.0727,0.0,4.9,271.0,6.5,'11111222,11111222,11111222' 
TCOON,ioos:station:TCOON:009:1,2013-07-01T00:24:00Z,27.8398,-97.0727,0.0,5.3,292.0,6.1,'11111222,11111222,11111222' 
TCOON,ioos:station:TCOON:009:1,2013-07-01T00:30:00Z,27.8398,-97.0727,0.0,5.4,304.0,6.9,'11111222,11111222,11111222' 
TCOON,ioos:station:TCOON:009:1,2013-07-01T00:36:00Z,27.8398,-97.0727,0.0,5.3,307.0,6.7,'11111222,11111222,11111222' 
TCOON,ioos:station:TCOON:009:1,2013-07-01T00:42:00Z,27.8398,-97.0727,0.0,4.6,311.0,5.5,'11111222,11111222,11111222' 
TCOON,ioos:station:TCOON:009:1,2013-07-01T00:48:00Z,27.8398,-97.0727,0.0,3.8,302.0,5.1,'11111222,11111222,11111222' 
TCOON,ioos:station:TCOON:009:1,2013-07-01T00:54:00Z,27.8398,-97.0727,0.0,3.9,307.0,5.0,'11111222,11111222,11111222' 
TCOON,ioos:station:TCOON:009:1,2013-07-01T01:00:00Z,27.8398,-97.0727,0.0,4.1,313.0,5.0,'11111222,11111222,11111222' 
TCOON,ioos:station:TCOON:009:1,2013-07-01T01:06:00Z,27.8398,-97.0727,0.0,4.2,316.0,5.3,'11111222,11111222,11111222' 
TCOON,ioos:station:TCOON:009:1,2013-07-01T01:12:00Z,27.8398,-97.0727,0.0,3.8,314.0,4.5,'11111222,11111222,11111222' 
TCOON,ioos:station:TCOON:009:1,2013-07-01T01:18:00Z,27.8398,-97.0727,0.0,4.1,308.0,4.9,'11111222,11111222,11111222' 
TCOON,ioos:station:TCOON:009:1,2013-07-01T01:24:00Z,27.8398,-97.0727,0.0,3.7,305.0,4.3,'11111222,11111222,11111222' 
TCOON,ioos:station:TCOON:009:1,2013-07-01T01:30:00Z,27.8398,-97.0727,0.0,3.5,307.0,4.1,'11111222,11111222,11111222' 
TCOON,ioos:station:TCOON:009:1,2013-07-01T01:36:00Z,27.8398,-97.0727,0.0,3.2,307.0,4.0,'11111222,11111222,11111222' 
TCOON,ioos:station:TCOON:009:1,2013-07-01T01:42:00Z,27.8398,-97.0727,0.0,3.2,309.0,4.1,'11111222,11111222,11111222' 
TCOON,ioos:station:TCOON:009:1,2013-07-01T01:48:00Z,27.8398,-97.0727,0.0,3.4,306.0,4.0,'11111222,11111222,11111222' 
TCOON,ioos:station:TCOON:009:1,2013-07-01T01:54:00Z,27.8398,-97.0727,0.0,2.9,303.0,3.8,'11111222,11111222,11111222' 
TCOON,ioos:station:TCOON:009:1,2013-07-01T02:00:00Z,27.8398,-97.0727,0.0,3.2,302.0,3.8,'11111222,11111222,11111222' 
TCOON,ioos:station:TCOON:009:1,2013-07-01T02:06:00Z,27.8398,-97.0727,0.0,3.1,302.0,3.5,'11111222,11111222,11111222' 
TCOON,ioos:station:TCOON:009:1,2013-07-01T02:12:00Z,27.8398,-97.0727,0.0,3.3,302.0,3.7,'11111222,11111222,11111222' 
TCOON,ioos:station:TCOON:009:1,2013-07-01T02:18:00Z,27.8398,-97.0727,0.0,3.6,301.0,4.2,'11111222,11111222,11111222' 
TCOON,ioos:station:TCOON:009:1,2013-07-01T02:24:00Z,27.8398,-97.0727,0.0,3.6,298.0,4.6,'11111222,11111222,11111222' 
TCOON,ioos:station:TCOON:009:1,2013-07-01T02:30:00Z,27.8398,-97.0727,0.0,3.2,299.0,4.0,'11111222,11111222,11111222' 
TCOON,ioos:station:TCOON:009:1,2013-07-01T02:36:00Z,27.8398,-97.0727,0.0,3.2,304.0,3.8,'11111222,11111222,11111222' 
TCOON,ioos:station:TCOON:009:1,2013-07-01T02:42:00Z,27.8398,-97.0727,0.0,3.6,300.0,4.4,'11111222,11111222,11111222' 
TCOON,ioos:station:TCOON:009:1,2013-07-01T02:48:00Z,27.8398,-97.0727,0.0,3.5,294.0,4.4,'11111222,11111222,11111222' 
TCOON,ioos:station:TCOON:009:1,2013-07-01T02:54:00Z,27.8398,-97.0727,0.0,3.6,292.0,4.3,'11111222,11111222,11111222' 
TCOON,ioos:station:TCOON:009:1,2013-07-01T03:00:00Z,27.8398,-97.0727,0.0,3.2,291.0,4.1,'11111222,11111222,11111222' 
TCOON,ioos:station:TCOON:009:1,2013-07-01T03:06:00Z,27.8398,-97.0727,0.0,2.8,293.0,3.5,'11111222,11111222,11111222' 
TCOON,ioos:station:TCOON:009:1,2013-07-01T03:12:00Z,27.8398,-97.0727,0.0,2.7,296.0,3.3,'11111222,11111222,11111222' 
TCOON,ioos:station:TCOON:009:1,2013-07-01T03:18:00Z,27.8398,-97.0727,0.0,2.6,285.0,3.2,'11111222,11111222,11111222' 
TCOON,ioos:station:TCOON:009:1,2013-07-01T03:24:00Z,27.8398,-97.0727,0.0,2.2,294.0,3.0,'11111222,11111222,11111222' 
TCOON,ioos:station:TCOON:009:1,2013-07-01T03:30:00Z,27.8398,-97.0727,0.0,2.2,294.0,2.8,'11111222,11111222,11111222' 
TCOON,ioos:station:TCOON:009:1,2013-07-01T03:36:00Z,27.8398,-97.0727,0.0,2.3,298.0,2.7,'11111222,11111222,11111222' 
TCOON,ioos:station:TCOON:009:1,2013-07-01T03:42:00Z,27.8398,-97.0727,0.0,2.4,299.0,2.8,'11111222,11111222,11111222' 
TCOON,ioos:station:TCOON:009:1,2013-07-01T03:48:00Z,27.8398,-97.0727,0.0,2.3,310.0,2.8,'11111222,11111222,11111222' 
TCOON,ioos:station:TCOON:009:1,2013-07-01T03:54:00Z,27.8398,-97.0727,0.0,2.6,308.0,2.9,'11111222,11111222,11111222' 
TCOON,ioos:station:TCOON:009:1,2013-07-01T04:00:00Z,27.8398,-97.0727,0.0,2.3,293.0,2.8,'11111222,11111222,11111222' 
TCOON,ioos:station:TCOON:009:1,2013-07-01T04:06:00Z,27.8398,-97.0727,0.0,2.4,291.0,3.0,'11111222,11111222,11111222' 
TCOON,ioos:station:TCOON:009:1,2013-07-01T04:12:00Z,27.8398,-97.0727,0.0,2.8,293.0,3.2,'11111222,11111222,11111222' 
TCOON,ioos:station:TCOON:009:1,2013-07-01T04:18:00Z,27.8398,-97.0727,0.0,2.8,300.0,3.4,'11111222,11111222,11111222' 
TCOON,ioos:station:TCOON:009:1,2013-07-01T04:24:00Z,27.8398,-97.0727,0.0,2.8,295.0,3.6,'11111222,11111222,11111222' 
TCOON,ioos:station:TCOON:009:1,2013-07-01T04:30:00Z,27.8398,-97.0727,0.0,3.0,300.0,3.4,'11111222,11111222,11111222' 
TCOON,ioos:station:TCOON:009:1,2013-07-01T04:36:00Z,27.8398,-97.0727,0.0,2.5,306.0,3.4,'11111222,11111222,11111222' 
TCOON,ioos:station:TCOON:009:1,2013-07-01T04:42:00Z,27.8398,-97.0727,0.0,2.1,307.0,2.7,'11111222,11111222,11111222' 
TCOON,ioos:station:TCOON:009:1,2013-07-01T04:48:00Z,27.8398,-97.0727,0.0,2.5,296.0,2.9,'11111222,11111222,11111222' 
TCOON,ioos:station:TCOON:009:1,2013-07-01T04:54:00Z,27.8398,-97.0727,0.0,2.4,290.0,2.8,'11111222,11111222,11111222' 
TCOON,ioos:station:TCOON:009:1,2013-07-01T05:00:00Z,27.8398,-97.0727,0.0,2.3,285.0,2.8,'11111222,11111222,11111222' 
TCOON,ioos:station:TCOON:009:1,2013-07-01T05:06:00Z,27.8398,-97.0727,0.0,2.3,261.0,2.9,'11111222,11111222,11111222' 
TCOON,ioos:station:TCOON:009:1,2013-07-01T05:12:00Z,27.8398,-97.0727,0.0,2.2,271.0,2.7,'11111222,11111222,11111222' 
TCOON,ioos:station:TCOON:009:1,2013-07-01T05:18:00Z,27.8398,-97.0727,0.0,1.9,268.0,2.4,'11111222,11111222,11111222' 
TCOON,ioos:station:TCOON:009:1,2013-07-01T05:24:00Z,27.8398,-97.0727,0.0,2.1,270.0,2.9,'11111222,11111222,11111222' 
TCOON,ioos:station:TCOON:009:1,2013-07-01T05:30:00Z,27.8398,-97.0727,0.0,2.2,274.0,2.6,'11111222,11111222,11111222' 
TCOON,ioos:station:TCOON:009:1,2013-07-01T05:36:00Z,27.8398,-97.0727,0.0,2.5,275.0,2.7,'11111222,11111222,11111222' 
TCOON,ioos:station:TCOON:009:1,2013-07-01T05:42:00Z,27.8398,-97.0727,0.0,2.2,302.0,2.7,'11111222,11111222,11111222' 
TCOON,ioos:station:TCOON:009:1,2013-07-01T05:48:00Z,27.8398,-97.0727,0.0,2.5,308.0,2.8,'11111222,11111222,11111222' 
TCOON,ioos:station:TCOON:009:1,2013-07-01T05:54:00Z,27.8398,-97.0727,0.0,2.3,308.0,2.9,'11111222,11111222,11111222' 
TCOON,ioos:station:TCOON:009:1,2013-07-01T06:00:00Z,27.8398,-97.0727,0.0,2.0,310.0,2.8,'11111222,11111222,11111222' 
TCOON,ioos:station:TCOON:009:1,2013-07-01T06:06:00Z,27.8398,-97.0727,0.0,2.4,302.0,3.0,'11111222,11111222,11111222' 
TCOON,ioos:station:TCOON:009:1,2013-07-01T06:12:00Z,27.8398,-97.0727,0.0,2.1,305.0,2.6,'11111222,11111222,11111222' 
TCOON,ioos:station:TCOON:009:1,2013-07-01T06:18:00Z,27.8398,-97.0727,0.0,1.7,294.0,2.3,'11111222,11111222,11111222' 
TCOON,ioos:station:TCOON:009:1,2013-07-01T06:24:00Z,27.8398,-97.0727,0.0,1.9,291.0,2.3,'11111222,11111222,11111222' 
TCOON,ioos:station:TCOON:009:1,2013-07-01T06:30:00Z,27.8398,-97.0727,0.0,1.9,297.0,2.3,'11111222,11111222,11111222' 
TCOON,ioos:station:TCOON:009:1,2013-07-01T06:36:00Z,27.8398,-97.0727,0.0,2.0,287.0,2.3,'11111222,11111222,11111222' 
TCOON,ioos:station:TCOON:009:1,2013-07-01T06:42:00Z,27.8398,-97.0727,0.0,1.6,289.0,2.1,'11111222,11111222,11111222' 
TCOON,ioos:station:TCOON:009:1,2013-07-01T06:48:00Z,27.8398,-97.0727,0.0,1.3,279.0,1.7,'11111222,11111222,11111222' 
TCOON,ioos:station:TCOON:009:1,2013-07-01T06:54:00Z,27.8398,-97.0727,0.0,1.8,280.0,2.2,'11111222,11111222,11111222' 
TCOON,ioos:station:TCOON:009:1,2013-07-01T07:00:00Z,27.8398,-97.0727,0.0,1.7,271.0,2.3,'11111222,11111222,11111222' 
TCOON,ioos:station:TCOON:009:1,2013-07-01T07:06:00Z,27.8398,-97.0727,0.0,1.9,283.0,2.3,'11111222,11111222,11111222' 
TCOON,ioos:station:TCOON:009:1,2013-07-01T07:12:00Z,27.8398,-97.0727,0.0,2.3,262.0,2.7,'11111222,11111222,11111222' 
TCOON,ioos:station:TCOON:009:1,2013-07-01T07:18:00Z,27.8398,-97.0727,0.0,2.4,266.0,2.8,'11111222,11111222,11111222' 
TCOON,ioos:station:TCOON:009:1,2013-07-01T07:24:00Z,27.8398,-97.0727,0.0,2.8,270.0,3.1,'11111222,11111222,11111222' 
TCOON,ioos:station:TCOON:009:1,2013-07-01T07:30:00Z,27.8398,-97.0727,0.0,2.5,265.0,3.3,'11111222,11111222,11111222' 
TCOON,ioos:station:TCOON:009:1,2013-07-01T07:36:00Z,27.8398,-97.0727,0.0,2.9,193.0,4.2,'11111222,11111222,11111222' 
TCOON,ioos:station:TCOON:009:1,2013-07-01T07:42:00Z,27.8398,-97.0727,0.0,2.6,193.0,5.0,'11111222,11111222,11111222' 
TCOON,ioos:station:TCOON:009:1,2013-07-01T07:48:00Z,27.8398,-97.0727,0.0,2.4,235.0,4.2,'11111222,11111222,11111222' 
TCOON,ioos:station:TCOON:009:1,2013-07-01T07:54:00Z,27.8398,-97.0727,0.0,1.2,218.0,2.6,'11111222,11111222,11111222' 
TCOON,ioos:station:TCOON:009:1,2013-07-01T08:00:00Z,27.8398,-97.0727,0.0,0.7,212.0,1.7,'11111222,11111222,11111222' 
TCOON,ioos:station:TCOON:009:1,2013-07-01T08:06:00Z,27.8398,-97.0727,0.0,1.0,303.0,1.2,'11111222,11111222,11111222' 
TCOON,ioos:station:TCOON:009:1,2013-07-01T08:12:00Z,27.8398,-97.0727,0.0,2.6,247.0,3.4,'11111222,11111222,11111222' 
TCOON,ioos:station:TCOON:009:1,2013-07-01T08:18:00Z,27.8398,-97.0727,0.0,2.2,249.0,3.1,'11111222,11111222,11111222' 
TCOON,ioos:station:TCOON:009:1,2013-07-01T08:24:00Z,27.8398,-97.0727,0.0,2.0,256.0,2.8,'11111222,11111222,11111222' 
TCOON,ioos:station:TCOON:009:1,2013-07-01T08:30:00Z,27.8398,-97.0727,0.0,3.1,262.0,3.5,'11111222,11111222,11111222' 
TCOON,ioos:station:TCOON:009:1,2013-07-01T08:36:00Z,27.8398,-97.0727,0.0,3.2,259.0,3.5,'11111222,11111222,11111222' 
TCOON,ioos:station:TCOON:009:1,2013-07-01T08:42:00Z,27.8398,-97.0727,0.0,2.7,263.0,3.3,'11111222,11111222,11111222' 
TCOON,ioos:station:TCOON:009:1,2013-07-01T08:48:00Z,27.8398,-97.0727,0.0,2.4,255.0,3.0,'11111222,11111222,11111222' 
TCOON,ioos:station:TCOON:009:1,2013-07-01T08:54:00Z,27.8398,-97.0727,0.0,2.0,247.0,3.2,'11111222,11111222,11111222' 
TCOON,ioos:station:TCOON:009:1,2013-07-01T09:00:00Z,27.8398,-97.0727,0.0,2.7,259.0,3.0,'11111222,11111222,11111222' 
TCOON,ioos:station:TCOON:009:1,2013-07-01T09:06:00Z,27.8398,-97.0727,0.0,2.9,262.0,3.2,'11111222,11111222,11111222' 
TCOON,ioos:station:TCOON:009:1,2013-07-01T09:12:00Z,27.8398,-97.0727,0.0,2.8,261.0,3.5,'11111222,11111222,11111222' 
TCOON,ioos:station:TCOON:009:1,2013-07-01T09:18:00Z,27.8398,-97.0727,0.0,2.9,268.0,3.5,'11111222,11111222,11111222' 
TCOON,ioos:station:TCOON:009:1,2013-07-01T09:24:00Z,27.8398,-97.0727,0.0,2.7,283.0,3.1,'11111222,11111222,11111222' 
TCOON,ioos:station:TCOON:009:1,2013-07-01T09:30:00Z,27.8398,-97.0727,0.0,2.6,268.0,3.1,'11111222,11111222,11111222' 
TCOON,ioos:station:TCOON:009:1,2013-07-01T09:36:00Z,27.8398,-97.0727,0.0,2.6,259.0,3.2,'11111222,11111222,11111222' 
TCOON,ioos:station:TCOON:009:1,2013-07-01T09:42:00Z,27.8398,-97.0727,0.0,2.4,280.0,3.1,'11111222,11111222,11111222' 
TCOON,ioos:station:TCOON:009:1,2013-07-01T09:48:00Z,27.8398,-97.0727,0.0,3.3,272.0,3.5,'11111222,11111222,11111222' 
TCOON,ioos:station:TCOON:009:1,2013-07-01T09:54:00Z,27.8398,-97.0727,0.0,2.6,259.0,3.3,'11111222,11111222,11111222' 
TCOON,ioos:station:TCOON:009:1,2013-07-01T10:00:00Z,27.8398,-97.0727,0.0,2.6,261.0,2.9,'11111222,11111222,11111222' 
TCOON,ioos:station:TCOON:009:1,2013-07-01T10:06:00Z,27.8398,-97.0727,0.0,2.9,259.0,3.6,'11111222,11111222,11111222' 
TCOON,ioos:station:TCOON:009:1,2013-07-01T10:12:00Z,27.8398,-97.0727,0.0,3.0,257.0,3.8,'11111222,11111222,11111222' 
TCOON,ioos:station:TCOON:009:1,2013-07-01T10:18:00Z,27.8398,-97.0727,0.0,3.3,258.0,3.6,'11111222,11111222,11111222' 
TCOON,ioos:station:TCOON:009:1,2013-07-01T10:24:00Z,27.8398,-97.0727,0.0,3.4,261.0,4.0,'11111222,11111222,11111222' 
TCOON,ioos:station:TCOON:009:1,2013-07-01T10:30:00Z,27.8398,-97.0727,0.0,4.7,257.0,5.3,'11111222,11111222,11111222' 
TCOON,ioos:station:TCOON:009:1,2013-07-01T10:36:00Z,27.8398,-97.0727,0.0,4.6,259.0,5.1,'11111222,11111222,11111222' 
TCOON,ioos:station:TCOON:009:1,2013-07-01T10:42:00Z,27.8398,-97.0727,0.0,4.3,261.0,4.9,'11111222,11111222,11111222' 
TCOON,ioos:station:TCOON:009:1,2013-07-01T10:48:00Z,27.8398,-97.0727,0.0,4.1,262.0,4.5,'11111222,11111222,11111222' 
TCOON,ioos:station:TCOON:009:1,2013-07-01T10:54:00Z,27.8398,-97.0727,0.0,4.3,266.0,4.7,'11111222,11111222,11111222' 
TCOON,ioos:station:TCOON:009:1,2013-07-01T11:00:00Z,27.8398,-97.0727,0.0,3.9,271.0,4.6,'11111222,11111222,11111222' 
TCOON,ioos:station:TCOON:009:1,2013-07-01T11:06:00Z,27.8398,-97.0727,0.0,4.3,283.0,4.9,'11111222,11111222,11111222' 
TCOON,ioos:station:TCOON:009:1,2013-07-01T11:12:00Z,27.8398,-97.0727,0.0,4.1,293.0,4.5,'11111222,11111222,11111222' 
TCOON,ioos:station:TCOON:009:1,2013-07-01T11:18:00Z,27.8398,-97.0727,0.0,4.0,292.0,4.6,'11111222,11111222,11111222' 
TCOON,ioos:station:TCOON:009:1,2013-07-01T11:24:00Z,27.8398,-97.0727,0.0,3.3,296.0,4.2,'11111222,11111222,11111222' 
TCOON,ioos:station:TCOON:009:1,2013-07-01T11:30:00Z,27.8398,-97.0727,0.0,2.7,301.0,3.5,'11111222,11111222,11111222' 
TCOON,ioos:station:TCOON:009:1,2013-07-01T11:36:00Z,27.8398,-97.0727,0.0,2.8,298.0,3.1,'11111222,11111222,11111222' 
TCOON,ioos:station:TCOON:009:1,2013-07-01T11:42:00Z,27.8398,-97.0727,0.0,2.9,311.0,3.3,'11111222,11111222,11111222' 
TCOON,ioos:station:TCOON:009:1,2013-07-01T11:48:00Z,27.8398,-97.0727,0.0,3.2,308.0,3.7,'11111222,11111222,11111222' 
TCOON,ioos:station:TCOON:009:1,2013-07-01T11:54:00Z,27.8398,-97.0727,0.0,2.4,316.0,3.6,'11111222,11111222,11111222' 
TCOON,ioos:station:TCOON:009:1,2013-07-01T12:00:00Z,27.8398,-97.0727,0.0,2.5,334.0,3.1,'11111222,11111222,11111222' 
TCOON,ioos:station:TCOON:009:1,2013-07-01T12:06:00Z,27.8398,-97.0727,0.0,3.3,342.0,3.9,'11111222,11111222,11111222' 
TCOON,ioos:station:TCOON:009:1,2013-07-01T12:12:00Z,27.8398,-97.0727,0.0,2.9,338.0,4.0,'11111222,11111222,11111222' 
TCOON,ioos:station:TCOON:009:1,2013-07-01T12:18:00Z,27.8398,-97.0727,0.0,2.9,346.0,3.8,'11111222,11111222,11111222' 
TCOON,ioos:station:TCOON:009:1,2013-07-01T12:24:00Z,27.8398,-97.0727,0.0,2.5,349.0,3.4,'11111222,11111222,11111222' 
TCOON,ioos:station:TCOON:009:1,2013-07-01T12:30:00Z,27.8398,-97.0727,0.0,2.7,352.0,3.5,'11111222,11111222,11111222' 
TCOON,ioos:station:TCOON:009:1,2013-07-01T12:36:00Z,27.8398,-97.0727,0.0,2.6,358.0,3.8,'11111222,11111222,11111222' 
TCOON,ioos:station:TCOON:009:1,2013-07-01T12:42:00Z,27.8398,-97.0727,0.0,3.1,2.0,3.8,'11111222,11111222,11111222' 
TCOON,ioos:station:TCOON:009:1,2013-07-01T12:48:00Z,27.8398,-97.0727,0.0,3.3,7.0,4.0,'11111222,11111222,11111222' 
TCOON,ioos:station:TCOON:009:1,2013-07-01T12:54:00Z,27.8398,-97.0727,0.0,4.7,12.0,5.9,'11111222,11111222,11111222' 
TCOON,ioos:station:TCOON:009:1,2013-07-01T13:00:00Z,27.8398,-97.0727,0.0,4.4,15.0,5.5,'11111222,11111222,11111222' 
TCOON,ioos:station:TCOON:009:1,2013-07-01T13:06:00Z,27.8398,-97.0727,0.0,5.2,17.0,6.2,'11111222,11111222,11111222' 
TCOON,ioos:station:TCOON:009:1,2013-07-01T13:12:00Z,27.8398,-97.0727,0.0,5.8,19.0,7.0,'11111222,11111222,11111222' 
TCOON,ioos:station:TCOON:009:1,2013-07-01T13:18:00Z,27.8398,-97.0727,0.0,5.7,29.0,7.2,'11111222,11111222,11111222' 
TCOON,ioos:station:TCOON:009:1,2013-07-01T13:24:00Z,27.8398,-97.0727,0.0,6.1,25.0,7.1,'11111222,11111222,11111222' 
TCOON,ioos:station:TCOON:009:1,2013-07-01T13:30:00Z,27.8398,-97.0727,0.0,5.4,24.0,7.3,'11111222,11111222,11111222' 
TCOON,ioos:station:TCOON:009:1,2013-07-01T13:36:00Z,27.8398,-97.0727,0.0,5.9,24.0,7.4,'11111222,11111222,11111222' 
TCOON,ioos:station:TCOON:009:1,2013-07-01T13:42:00Z,27.8398,-97.0727,0.0,5.2,28.0,7.1,'11111222,11111222,11111222' 
TCOON,ioos:station:TCOON:009:1,2013-07-01T13:48:00Z,27.8398,-97.0727,0.0,6.8,34.0,7.9,'11111222,11111222,11111222' 
TCOON,ioos:station:TCOON:009:1,2013-07-01T13:54:00Z,27.8398,-97.0727,0.0,8.2,35.0,9.5,'11111222,11111222,11111222' 
TCOON,ioos:station:TCOON:009:1,2013-07-01T14:00:00Z,27.8398,-97.0727,0.0,7.1,36.0,9.6,'11111222,11111222,11111222' 
TCOON,ioos:station:TCOON:009:1,2013-07-01T14:06:00Z,27.8398,-97.0727,0.0,7.1,34.0,9.2,'11111222,11111222,11111222' 
TCOON,ioos:station:TCOON:009:1,2013-07-01T14:12:00Z,27.8398,-97.0727,0.0,6.7,33.0,8.7,'11111222,11111222,11111222' 
TCOON,ioos:station:TCOON:009:1,2013-07-01T14:18:00Z,27.8398,-97.0727,0.0,7.3,37.0,8.8,'11111222,11111222,11111222' 
TCOON,ioos:station:TCOON:009:1,2013-07-01T14:24:00Z,27.8398,-97.0727,0.0,7.8,32.0,9.1,'11111222,11111222,11111222' 
TCOON,ioos:station:TCOON:009:1,2013-07-01T14:30:00Z,27.8398,-97.0727,0.0,8.4,36.0,10.0,'11111222,11111222,11111222' 
TCOON,ioos:station:TCOON:009:1,2013-07-01T14:36:00Z,27.8398,-97.0727,0.0,7.8,35.0,10.1,'11111222,11111222,11111222' 
TCOON,ioos:station:TCOON:009:1,2013-07-01T14:42:00Z,27.8398,-97.0727,0.0,8.2,38.0,9.9,'11111222,11111222,11111222' 
TCOON,ioos:station:TCOON:009:1,2013-07-01T14:48:00Z,27.8398,-97.0727,0.0,8.5,33.0,9.6,'11111222,11111222,11111222' 
TCOON,ioos:station:TCOON:009:1,2013-07-01T14:54:00Z,27.8398,-97.0727,0.0,7.7,33.0,9.9,'11111222,11111222,11111222' 
TCOON,ioos:station:TCOON:009:1,2013-07-01T15:00:00Z,27.8398,-97.0727,0.0,8.5,33.0,10.1,'11111222,11111222,11111222' 
TCOON,ioos:station:TCOON:009:1,2013-07-01T15:06:00Z,27.8398,-97.0727,0.0,9.2,36.0,10.5,'11111222,11111222,11111222' 
TCOON,ioos:station:TCOON:009:1,2013-07-01T15:12:00Z,27.8398,-97.0727,0.0,8.2,35.0,10.4,'11111222,11111222,11111222' 
TCOON,ioos:station:TCOON:009:1,2013-07-01T15:18:00Z,27.8398,-97.0727,0.0,8.2,36.0,9.9,'11111222,11111222,11111222' 
TCOON,ioos:station:TCOON:009:1,2013-07-01T15:24:00Z,27.8398,-97.0727,0.0,7.1,39.0,9.3,'11111222,11111222,11111222' 
TCOON,ioos:station:TCOON:009:1,2013-07-01T15:30:00Z,27.8398,-97.0727,0.0,7.5,34.0,9.9,'11111222,11111222,11111222' 
TCOON,ioos:station:TCOON:009:1,2013-07-01T15:36:00Z,27.8398,-97.0727,0.0,8.0,35.0,10.0,'11111222,11111222,11111222' 
TCOON,ioos:station:TCOON:009:1,2013-07-01T15:42:00Z,27.8398,-97.0727,0.0,7.5,37.0,9.2,'11111222,11111222,11111222' 
TCOON,ioos:station:TCOON:009:1,2013-07-01T15:48:00Z,27.8398,-97.0727,0.0,8.5,38.0,9.8,'11111222,11111222,11111222' 
TCOON,ioos:station:TCOON:009:1,2013-07-01T15:54:00Z,27.8398,-97.0727,0.0,7.8,36.0,9.3,'11111222,11111222,11111222' 
TCOON,ioos:station:TCOON:009:1,2013-07-01T16:00:00Z,27.8398,-97.0727,0.0,8.1,40.0,9.9,'11111222,11111222,11111222' 
TCOON,ioos:station:TCOON:009:1,2013-07-01T16:06:00Z,27.8398,-97.0727,0.0,8.3,39.0,10.0,'11111222,11111222,11111222' 
TCOON,ioos:station:TCOON:009:1,2013-07-01T16:12:00Z,27.8398,-97.0727,0.0,8.0,38.0,9.5,'11111222,11111222,11111222' 
TCOON,ioos:station:TCOON:009:1,2013-07-01T16:18:00Z,27.8398,-97.0727,0.0,7.2,39.0,9.2,'11111222,11111222,11111222' 
TCOON,ioos:station:TCOON:009:1,2013-07-01T16:24:00Z,27.8398,-97.0727,0.0,7.5,39.0,9.0,'11111222,11111222,11111222' 
TCOON,ioos:station:TCOON:009:1,2013-07-01T16:30:00Z,27.8398,-97.0727,0.0,7.5,43.0,8.9,'11111222,11111222,11111222' 
TCOON,ioos:station:TCOON:009:1,2013-07-01T16:36:00Z,27.8398,-97.0727,0.0,7.7,38.0,9.9,'11111222,11111222,11111222' 
TCOON,ioos:station:TCOON:009:1,2013-07-01T16:42:00Z,27.8398,-97.0727,0.0,8.1,38.0,10.3,'11111222,11111222,11111222' 
TCOON,ioos:station:TCOON:009:1,2013-07-01T16:48:00Z,27.8398,-97.0727,0.0,7.9,39.0,10.6,'11111222,11111222,11111222' 
TCOON,ioos:station:TCOON:009:1,2013-07-01T16:54:00Z,27.8398,-97.0727,0.0,6.9,42.0,9.2,'11111222,11111222,11111222' 
TCOON,ioos:station:TCOON:009:1,2013-07-01T17:00:00Z,27.8398,-97.0727,0.0,7.8,44.0,9.3,'11111222,11111222,11111222' 
TCOON,ioos:station:TCOON:009:1,2013-07-01T17:06:00Z,27.8398,-97.0727,0.0,7.6,47.0,10.2,'11111222,11111222,11111222' 
TCOON,ioos:station:TCOON:009:1,2013-07-01T17:12:00Z,27.8398,-97.0727,0.0,7.4,47.0,9.3,'11111222,11111222,11111222' 
TCOON,ioos:station:TCOON:009:1,2013-07-01T17:18:00Z,27.8398,-97.0727,0.0,7.8,48.0,9.6,'11111222,11111222,11111222' 
TCOON,ioos:station:TCOON:009:1,2013-07-01T17:24:00Z,27.8398,-97.0727,0.0,7.8,51.0,9.3,'11111222,11111222,11111222' 
TCOON,ioos:station:TCOON:009:1,2013-07-01T17:30:00Z,27.8398,-97.0727,0.0,7.7,53.0,9.1,'11111222,11111222,11111222' 
TCOON,ioos:station:TCOON:009:1,2013-07-01T17:36:00Z,27.8398,-97.0727,0.0,7.2,55.0,8.7,'11111222,11111222,11111222' 
TCOON,ioos:station:TCOON:009:1,2013-07-01T17:42:00Z,27.8398,-97.0727,0.0,7.5,53.0,8.6,'11111222,11111222,11111222' 
TCOON,ioos:station:TCOON:009:1,2013-07-01T17:48:00Z,27.8398,-97.0727,0.0,7.2,55.0,8.2,'11111222,11111222,11111222' 
TCOON,ioos:station:TCOON:009:1,2013-07-01T17:54:00Z,27.8398,-97.0727,0.0,7.0,57.0,8.7,'11111222,11111222,11111222' 
TCOON,ioos:station:TCOON:009:1,2013-07-01T18:00:00Z,27.8398,-97.0727,0.0,6.5,62.0,7.7,'11111222,11111222,11111222' 
TCOON,ioos:station:TCOON:009:1,2013-07-01T18:06:00Z,27.8398,-97.0727,0.0,5.6,67.0,6.4,'11111222,11111222,11111222' 
TCOON,ioos:station:TCOON:009:1,2013-07-01T18:12:00Z,27.8398,-97.0727,0.0,5.6,64.0,6.2,'11111222,11111222,11111222' 
TCOON,ioos:station:TCOON:009:1,2013-07-01T18:18:00Z,27.8398,-97.0727,0.0,5.7,63.0,7.1,'11111222,11111222,11111222' 
TCOON,ioos:station:TCOON:009:1,2013-07-01T18:24:00Z,27.8398,-97.0727,0.0,5.7,63.0,7.1,'11111222,11111222,11111222' 
TCOON,ioos:station:TCOON:009:1,2013-07-01T18:30:00Z,27.8398,-97.0727,0.0,5.3,60.0,6.1,'11111222,11111222,11111222' 
TCOON,ioos:station:TCOON:009:1,2013-07-01T18:36:00Z,27.8398,-97.0727,0.0,5.6,66.0,6.8,'11111222,11111222,11111222' 
TCOON,ioos:station:TCOON:009:1,2013-07-01T18:42:00Z,27.8398,-97.0727,0.0,5.8,66.0,6.6,'11111222,11111222,11111222' 
TCOON,ioos:station:TCOON:009:1,2013-07-01T18:48:00Z,27.8398,-97.0727,0.0,5.5,65.0,7.0,'11111222,11111222,11111222' 
TCOON,ioos:station:TCOON:009:1,2013-07-01T18:54:00Z,27.8398,-97.0727,0.0,5.1,68.0,6.6,'11111222,11111222,11111222' 
TCOON,ioos:station:TCOON:009:1,2013-07-01T19:00:00Z,27.8398,-97.0727,0.0,5.1,71.0,6.0,'11111222,11111222,11111222' 
TCOON,ioos:station:TCOON:009:1,2013-07-01T19:06:00Z,27.8398,-97.0727,0.0,5.2,73.0,6.2,'11111222,11111222,11111222' 
TCOON,ioos:station:TCOON:009:1,2013-07-01T19:12:00Z,27.8398,-97.0727,0.0,4.8,83.0,6.3,'11111222,11111222,11111222' 
TCOON,ioos:station:TCOON:009:1,2013-07-01T19:18:00Z,27.8398,-97.0727,0.0,5.0,72.0,6.3,'11111222,11111222,11111222' 
TCOON,ioos:station:TCOON:009:1,2013-07-01T19:24:00Z,27.8398,-97.0727,0.0,4.9,72.0,6.4,'11111222,11111222,11111222' 
TCOON,ioos:station:TCOON:009:1,2013-07-01T19:30:00Z,27.8398,-97.0727,0.0,5.2,74.0,6.6,'11111222,11111222,11111222' 
TCOON,ioos:station:TCOON:009:1,2013-07-01T19:36:00Z,27.8398,-97.0727,0.0,5.4,82.0,6.2,'11111222,11111222,11111222' 
TCOON,ioos:station:TCOON:009:1,2013-07-01T19:42:00Z,27.8398,-97.0727,0.0,5.0,73.0,6.5,'11111222,11111222,11111222' 
TCOON,ioos:station:TCOON:009:1,2013-07-01T19:48:00Z,27.8398,-97.0727,0.0,4.2,84.0,5.7,'11111222,11111222,11111222' 
TCOON,ioos:station:TCOON:009:1,2013-07-01T19:54:00Z,27.8398,-97.0727,0.0,4.8,84.0,6.2,'11111222,11111222,11111222' 
TCOON,ioos:station:TCOON:009:1,2013-07-01T20:00:00Z,27.8398,-97.0727,0.0,4.5,87.0,5.9,'11111222,11111222,11111222' 
TCOON,ioos:station:TCOON:009:1,2013-07-01T20:06:00Z,27.8398,-97.0727,0.0,4.5,87.0,6.3,'11111222,11111222,11111222' 
TCOON,ioos:station:TCOON:009:1,2013-07-01T20:12:00Z,27.8398,-97.0727,0.0,4.3,87.0,6.3,'11111222,11111222,11111222' 
TCOON,ioos:station:TCOON:009:1,2013-07-01T20:18:00Z,27.8398,-97.0727,0.0,4.5,81.0,6.4,'11111222,11111222,11111222' 